Morrisville, VT

11:28 AM EDT on July 22, 2017 (GMT -0400)
Morrisville Stowe State

Weather History for KMVL - March, 2012

Change the Weather History Date:

Monday, March 5, 2012

  Actual Average Record
Temperature  
Mean Temperature 10 °F 24 °F  
Max Temperature 20 °F 36 °F 46 °F (2011)
Min Temperature 0 °F 13 °F -11 °F (2015)
Degree Days  
Heating Degree Days 55 41  
Month to date heating degree days 195 207  
Since 1 July heating degree days 5382 6167  
Cooling Degree Days 0 0  
Month to date cooling degree days 0 0  
Year to date cooling degree days 0 0  
Moisture  
Dew Point 1 °F    
Average Humidity 63    
Maximum Humidity 83    
Minimum Humidity 43    
Precipitation  
Precipitation T in 0.04 in 0.43 in (2001)
Month to date precipitation 0.06 0.20  
Year to date precipitation 1.23 4.48  
Sea Level Pressure  
Sea Level Pressure 29.98 in    
Wind  
Wind Speed 6 mph (North)    
Max Wind Speed 16 mph    
Max Gust Speed 21 mph    
Visibility 10 miles    
Events Snow    
T = Trace of Precipitation, MM = Missing Value Source: NWS Daily Summary

Daily Weather History Graph

Daily Weather History Graph

Search for Another Location

Airport or City:

Trip Planner

Search our weather history database for the weather conditions in past years. The results will help you decide how hot, cold, wet, or windy it might be!

Date:

Astronomy

Mar. 05, 2012 Rise Set
Actual Time 6:20 AM EST 5:44 PM EST
Civil Twilight 5:50 AM EST 6:13 PM EST
Nautical Twilight 5:17 AM EST 6:47 PM EST
Astronomical Twilight 4:43 AM EST 7:21 PM EST
Moon 2:54 PM EST (3/5) 4:23 AM EST (3/5)
Length of Visible Light 12h 22m
Length of Day
11h 24m
Waxing Gibbous, 91% of the Moon is Illuminated
Mar 5
Waxing Gibbous
Mar 8
Full
Mar 14
Last Quarter
Mar 22
New
Mar 30
First Quarter

Hourly Weather History & Observations

Time (EST) Temp. Windchill Dew Point Humidity Pressure Visibility Wind Dir Wind Speed Gust Speed Precip Events Conditions
12:54 AM 14.0 °F 6.5 °F 8.1 °F 77% 29.73 in 10.0 mi North 4.6 mph - N/A   Overcast
1:10 AM 14.0 °F 6.5 °F 6.8 °F 73% 29.69 in 10.0 mi North 4.6 mph - N/A   Overcast
1:26 AM 12.2 °F 4.3 °F 6.8 °F 79% 29.70 in 10.0 mi North 4.6 mph - N/A   Overcast
1:54 AM 12.9 °F 1.6 °F 7.0 °F 77% 29.75 in 9.0 mi North 8.1 mph - 0.00 in Snow Light Snow
2:54 AM 12.0 °F 4.1 °F 6.1 °F 77% 29.76 in 9.0 mi North 4.6 mph - 0.00 in Snow Light Snow
3:03 AM 10.4 °F 0.8 °F 6.8 °F 85% 29.72 in 9.0 mi North 5.8 mph - 0.00 in   Overcast
3:15 AM 10.4 °F 2.2 °F 6.8 °F 85% 29.73 in 10.0 mi NNE 4.6 mph - 0.00 in   Overcast
3:39 AM 10.4 °F 0.8 °F 5.0 °F 79% 29.74 in 10.0 mi NNE 5.8 mph - 0.00 in   Overcast
3:54 AM 10.0 °F -1.9 °F 5.0 °F 80% 29.79 in 10.0 mi NNE 8.1 mph - 0.00 in   Overcast
4:10 AM 8.6 °F -4.7 °F 3.2 °F 79% 29.76 in 10.0 mi North 9.2 mph - N/A   Overcast
4:54 AM 8.1 °F -3.2 °F 1.9 °F 76% 29.82 in 10.0 mi North 6.9 mph - N/A   Overcast
5:54 AM 6.1 °F -4.3 °F -0.0 °F 76% 29.85 in 10.0 mi NNE 5.8 mph - N/A   Overcast
6:29 AM 6.8 °F -3.5 °F -0.4 °F 72% 29.83 in 10.0 mi NNE 5.8 mph - N/A   Overcast
6:54 AM 6.1 °F -5.6 °F -0.0 °F 76% 29.89 in 10.0 mi NNE 6.9 mph - N/A   Overcast
7:54 AM 6.1 °F -10.9 °F -0.9 °F 73% 29.93 in 10.0 mi North 13.8 mph 20.7 mph 0.00 in   Overcast
8:11 AM 6.8 °F -9.3 °F -2.2 °F 67% 29.90 in 10.0 mi North 12.7 mph - 0.00 in   Overcast
8:37 AM 8.6 °F -3.7 °F -0.4 °F 67% 29.91 in 10.0 mi North 8.1 mph - 0.00 in   Overcast
8:46 AM 8.6 °F -2.6 °F -2.2 °F 62% 29.91 in 10.0 mi NNW 6.9 mph - 0.00 in   Overcast
8:54 AM 9.0 °F -4.2 °F -2.0 °F 61% 29.97 in 10.0 mi North 9.2 mph - 0.00 in   Overcast
9:54 AM 10.0 °F 0.4 °F -2.9 °F 56% 30.00 in 10.0 mi Variable 5.8 mph - N/A   Overcast
10:54 AM 12.9 °F 2.6 °F -0.9 °F 54% 30.02 in 10.0 mi NW 6.9 mph - N/A   Partly Cloudy
11:54 AM 16.0 °F 5.3 °F -0.0 °F 49% 30.04 in 10.0 mi North 8.1 mph - N/A   Mostly Cloudy
12:54 PM 17.1 °F 7.6 °F -0.0 °F 47% 30.07 in 10.0 mi North 6.9 mph - N/A   Overcast
1:54 PM 18.0 °F 7.7 °F -0.0 °F 45% 30.09 in 10.0 mi North 8.1 mph - N/A   Clear
2:54 PM 18.0 °F 12.7 °F -0.9 °F 44% 30.12 in 10.0 mi North 3.5 mph - N/A   Mostly Cloudy
3:54 PM 19.0 °F 12.3 °F -0.0 °F 43% 30.15 in 10.0 mi NW 4.6 mph - N/A   Mostly Cloudy
4:54 PM 18.0 °F 9.8 °F 1.0 °F 48% 30.18 in 10.0 mi NNW 5.8 mph - N/A   Mostly Cloudy
5:54 PM 15.1 °F 4.2 °F 1.0 °F 54% 30.22 in 10.0 mi North 8.1 mph - N/A   Partly Cloudy
6:54 PM 12.9 °F 3.8 °F 1.0 °F 59% 30.25 in 10.0 mi North 5.8 mph - N/A   Clear
7:54 PM 10.9 °F 4.7 °F 1.0 °F 64% 30.29 in 10.0 mi North 3.5 mph - N/A   Clear
8:54 PM 8.1 °F - -0.0 °F 70% 30.32 in 10.0 mi Calm Calm - N/A   Clear
9:54 PM 5.0 °F - -0.9 °F 76% 30.36 in 10.0 mi Calm Calm - N/A   Clear
10:54 PM 3.0 °F -4.4 °F -2.0 °F 80% 30.38 in 10.0 mi SSW 3.5 mph - N/A   Clear
11:54 PM -0.0 °F - -4.0 °F 83% 30.40 in 10.0 mi Calm Calm - N/A   Clear